Location: Unnamed
(53.9021°N, 27.5568°E)
Time: 18:18:41
(UTC+03:00)

STARLINK-73 - Pass Details

Date: 24 January 2020
Orbit: 528 x 531 km, 53.0° (Epoch: 25 February)

Event Time Altitude Azimuth Distance (km) Brightness Sun altitude
Exits shadow 07:23:46 18° 237° (WSW) 1,339 5.2 -15.2°
Maximum altitude 07:26:35 58° 162° (SSE) 622 4.0 -14.8°
Drops below altitude 10° 07:30:33 10° 83° (E) 1,783 7.4 -14.2°
Sets 07:32:48 0° 80° (E) 2,675 8.4 -13.9°
